Regional Weather Roundup
Issued by NWS Upton, NY

Current Version | Previous Version | Graphics & Text | Print | Product List | Glossary Off
Versions: 1 2 3 4 5 6 7 8 9 10 11 12 13 14 15 16 17 18 19 20 21 22 23 24 25 26 27 28 29 30 31 32 33 34 35 36 37 38 39 40 41 42 43 44 45 46 47 48 49 50

000
ASUS41 KOKX 281804
RWROKX

REGIONAL WEATHER ROUNDUP
NATIONAL WEATHER SERVICE NEW YORK NY
200 PM EDT FRI AUG 28 2015

NOTE: "FAIR" INDICATES FEW OR NO CLOUDS BELOW 12,000 FEET WITH NO
SIGNIFICANT WEATHER AND/OR OBSTRUCTIONS TO VISIBILITY.

NYZ071-072-176-178-NJZ106-104-281900-
NEW YORK CITY METRO AREA


CITY           SKY/WX    TMP DP  RH WIND       PRES   REMARKS
CENTRAL PARK   SUNNY     81  49  32 CALM      30.18F
LAGUARDIA APRT MOSUNNY   79  49  34 NW10      30.15F
KENNEDY INTL   MOSUNNY   80  51  36 NW6       30.16F
NEWARK/LIBERTY MOSUNNY   81  49  32 NW9       30.15F
BRNX BOT. GARD   N/A     77  50  38 SW3       30.16F
TETERBORO      MOSUNNY   79  50  36 VRB7      30.14F
$$

NYZ177-179-078>081-281900-
LONG ISLAND NEW YORK

CITY           SKY/WX    TMP DP  RH WIND       PRES   REMARKS
FARMINGDALE    SUNNY     79  52  38 W9        30.16F
ISLIP          MOSUNNY   79  52  38 N8        30.14F
SHIRLEY        PTSUNNY   78  54  43 N3        30.16F
WESTHAMPTON    CLOUDY    74  58  57 S3        30.18S
MONTAUK POINT    N/A     77  57  50 CALM      30.17F
$$

NYZ052-065-067-281900-
HUDSON VALLEY

CITY           SKY/WX    TMP DP  RH WIND       PRES   REMARKS
WHITE PLAINS   MOSUNNY   78  51  38 NW8       30.16F
NEWBURGH       MOSUNNY   72  55  56 W9        30.19F
MONTGOMERY     CLOUDY    77  56  48 CALM      30.18F
POUGHKEEPSIE   MOSUNNY   78  52  40 NW7       30.16F
ALBANY         PTSUNNY   73  53  49 NW3       30.18S
$$

NJZ001-105-106-008-010-013-015-019>022-104-281900-
NEW JERSEY

CITY           SKY/WX    TMP DP  RH WIND       PRES   REMARKS
NEWARK/LIBERTY MOSUNNY   81  49  32 NW9       30.15F
TETERBORO      MOSUNNY   79  50  36 VRB7      30.14F
CALDWELL       MOSUNNY   76  51  41 NW9       30.17F
MORRISTOWN     PTSUNNY   79  55  44 N14       30.18F
SOMERVILLE     SUNNY     78  52  40 MISG      30.16F
SUSSEX         MOSUNNY   74  53  48 VRB7      30.19F
ANDOVER          N/A     74  54  49 W7        30.19F
TRENTON        MOSUNNY   78  54  43 W6G16     30.17F
MILLVILLE      PTSUNNY   81  53  37 NW8       30.18F
ATLANTIC CITY  MOSUNNY   81  51  35 VRB6      30.17F
WRIGHTSTOWN    MOSUNNY   79  56  44 NW9       30.14F
TOMS RIVER     PTSUNNY   79  52  38 W6        30.17F
BELMAR         PTSUNNY   79  54  41 NW9       30.17F
$$

PAZ047>061-062-071-281900-
EASTERN PENNSYLVANIA

CITY           SKY/WX    TMP DP  RH WIND       PRES   REMARKS
PHILADELPHIA   MOSUNNY   82  51  34 NW13G18   30.17
ALLENTOWN      PTSUNNY   75  54  47 N5        30.19F
SCRANTON       PTSUNNY   74  51  44 N5        30.21F
$$

CTZ002-004>006-009-010-012-RIZ004-006-007-MAZ004-011-015-281900-
SOUTHERN NEW ENGLAND
 IN CT

CITY           SKY/WX    TMP DP  RH WIND       PRES   REMARKS
BRADLEY INTL   PTSUNNY   74  53  48 VRB3      30.15F
HARTFORD       PTSUNNY   76  54  46 CALM      30.14F
DANBURY        PTSUNNY   74  53  48 CALM      30.18F
WTRBRY/OXFORD  PTSUNNY   73  54  49 N6        30.20F
BRIDGEPORT     SUNNY     76  55  48 S9        30.15F
MERIDEN        MOSUNNY   80  52  37 VRB6      30.15F
NEW HAVEN      MOSUNNY   75  54  47 SW8       30.16F
CHESTER        NOT AVBL
GROTON         PTSUNNY   73  58  59 S12       30.15S
WILLIMANTIC    PTSUNNY   76  54  46 NW6       30.15F

 IN RI

CITY           SKY/WX    TMP DP  RH WIND       PRES   REMARKS
PROVIDENCE     PTSUNNY   79  53  40 NW8       30.14S
BLOCK ISLAND   SUNNY     75  57  53 SW8       30.16S
WESTERLY       MOSUNNY   77  54  44 SW8       30.16S

 IN MA

CITY           SKY/WX    TMP DP  RH WIND       PRES   REMARKS
BOSTON         MOSUNNY   74  55  51 E9        30.14S
WORCESTER      MOSUNNY   73  52  47 W9        30.17F
WESTFIELD      MOSUNNY   76  52  43 N3        30.15F
PROVINCETOWN   SUNNY     72  57  60 N7        30.15S
NANTUCKET      SUNNY     78  57  48 NW8       30.13F
$$

ANZ330-335-338-340-345-350-353-355-281900-
COASTAL MARINE OBSERVATIONS


STATION/POSITION TIME  SKY/WX   TEMP    WIND        PRES    VSBY  WAVE
                                AIR SEA DIR/SP/G                  HT/PER
                 (UTC)          (F)     (DEG/KT/KT) (MB)    (MI)  (FT/S)
NY HARB ENTRANCE 1650            71 77  320/  2/  4 1022.0          2/11
4S FIRE IS       NOT AVBL
20S FIRE ISLAND  1650            70 75  310/  6/  8 1021.9          3/ 9
GREAT SOUTH BAY  1715            73 80  240/  8/ 12   N/A
23SW MTP         1750            69 75  340/  2/  4 1021.2          2/10
HUDSON CANYON    NOT AVBL
KINGS POINT      1700            73 72  340/  2/  5 1021.1
EXECUTION ROCKS  1700            73     150/  2/  4   N/A
CENTRAL LI SOUND NOT AVBL
EASTERN LI SOUND 1700            71 71  210/  8/ 10   N/A
ROBBINS REEF     1700            74     270/  4/  5 1020.5
$$


>>>>>>>>>>>>>>>>>>>>>>>>>>>> KEY <<<<<<<<<<<<<<<<<<<<<<<<<<<
>                                                          <
>     SKY/WX - SKY CONDITION/PRESENT WEATHER               <
>     TMP    - TEMPERATURE IN FAHRENHEIT                   <
>     DP     - DEWPOINT IN FAHRENHEIT                      <
>     RH     - RELATIVE HUMIDITY IN PERCENT                <
>     WIND   - DIRECTION AND SPEED IN MPH                  <
>     PRES   - MEAN SEA LEVEL PRESSURE IN INCHES OF HG     <
>     WCI    - WIND CHILL INDEX                            <
>     VSB    - VISIBILITY IN MILES                         <
>     HX     - HEAT INDEX                                  <
>     TC     - TEMPERATURE IN CELSIUS                      <
>     VRB    - VARIABLE WIND DIRECTION                     <
>                                                          <
>>>>>>>>>>>>>>>>>>>>>>>>>>>> KEY <<<<<<<<<<<<<<<<<<<<<<<<<<<




USA.gov is the U.S. government's official web portal to all federal, state and local government web resources and services.